TimeCST,TemperatureF,Dew PointF,Humidity,Sea Level PressureIn,VisibilityMPH,Wind Direction,Wind SpeedMPH,Gust SpeedMPH,PrecipitationIn,Events,Conditions,WindDirDegrees,DateUTC
12:00 AM,35.6,35.6,100,29.98,10.0,ENE,17.3,24.2,N/A,,Overcast,60,2012-11-09 06:00:00
12:20 AM,37.4,37.4,100,29.96,10.0,ENE,19.6,24.2,N/A,,Overcast,60,2012-11-09 06:20:00
12:40 AM,37.4,37.4,100,29.97,10.0,NE,17.3,26.5,N/A,,Overcast,50,2012-11-09 06:40:00
1:00 AM,37.4,37.4,100,29.96,10.0,NE,17.3,24.2,N/A,,Overcast,50,2012-11-09 07:00:00
1:20 AM,37.4,37.4,100,29.93,10.0,ENE,19.6,26.5,N/A,,Overcast,60,2012-11-09 07:20:00
1:40 AM,37.4,37.4,100,29.95,10.0,ENE,19.6,26.5,N/A,,Overcast,60,2012-11-09 07:40:00
2:00 AM,37.4,37.4,100,29.96,10.0,NE,17.3,21.9,N/A,,Overcast,50,2012-11-09 08:00:00
2:20 AM,37.4,37.4,100,29.95,10.0,NE,18.4,-,N/A,,Overcast,50,2012-11-09 08:20:00
2:40 AM,35.6,35.6,100,29.95,10.0,ENE,16.1,23.0,N/A,,Overcast,60,2012-11-09 08:40:00
3:00 AM,35.6,35.6,100,29.96,10.0,ENE,19.6,-,N/A,,Overcast,60,2012-11-09 09:00:00
3:20 AM,35.6,35.6,100,29.96,10.0,ENE,15.0,-,N/A,,Overcast,60,2012-11-09 09:20:00
3:40 AM,35.6,35.6,100,29.96,10.0,ENE,16.1,-,N/A,,Overcast,60,2012-11-09 09:40:00
4:00 AM,35.6,35.6,100,29.96,10.0,ENE,16.1,23.0,N/A,,Overcast,60,2012-11-09 10:00:00
4:20 AM,35.6,35.6,100,29.96,10.0,NE,15.0,21.9,N/A,,Overcast,50,2012-11-09 10:20:00
4:40 AM,35.6,35.6,100,29.96,10.0,ENE,17.3,23.0,N/A,,Overcast,60,2012-11-09 10:40:00
5:00 AM,35.6,35.6,100,29.95,10.0,ENE,19.6,25.3,N/A,,Overcast,60,2012-11-09 11:00:00
5:20 AM,35.6,35.6,100,29.95,10.0,ENE,19.6,26.5,N/A,,Overcast,60,2012-11-09 11:20:00
5:40 AM,35.6,35.6,100,29.94,10.0,ENE,21.9,28.8,N/A,,Overcast,60,2012-11-09 11:40:00
6:00 AM,35.6,35.6,100,29.94,10.0,ENE,20.7,26.5,N/A,,Overcast,60,2012-11-09 12:00:00
6:20 AM,35.6,35.6,100,29.95,10.0,ENE,20.7,26.5,N/A,,Overcast,60,2012-11-09 12:20:00
6:40 AM,35.6,35.6,100,29.95,10.0,ENE,16.1,26.5,N/A,,Overcast,60,2012-11-09 12:40:00
7:00 AM,35.6,35.6,100,29.95,10.0,ENE,16.1,24.2,N/A,,Overcast,60,2012-11-09 13:00:00
7:20 AM,35.6,35.6,100,29.95,10.0,ENE,16.1,24.2,N/A,,Overcast,60,2012-11-09 13:20:00
7:40 AM,35.6,35.6,100,29.95,10.0,ENE,18.4,26.5,N/A,,Overcast,60,2012-11-09 13:40:00
8:00 AM,35.6,35.6,100,29.95,10.0,ENE,20.7,25.3,N/A,,Overcast,60,2012-11-09 14:00:00
8:20 AM,35.6,35.6,100,29.94,10.0,ENE,19.6,26.5,N/A,,Overcast,60,2012-11-09 14:20:00
8:40 AM,35.6,35.6,100,29.93,10.0,ENE,19.6,25.3,N/A,,Overcast,70,2012-11-09 14:40:00
9:00 AM,35.6,35.6,100,29.93,10.0,ENE,19.6,-,N/A,,Overcast,60,2012-11-09 15:00:00
9:20 AM,35.6,35.6,100,29.92,10.0,ENE,19.6,25.3,N/A,,Overcast,70,2012-11-09 15:20:00
9:40 AM,35.6,35.6,100,29.92,10.0,ENE,18.4,23.0,N/A,,Overcast,70,2012-11-09 15:40:00
10:00 AM,35.6,35.6,100,29.91,10.0,ENE,17.3,-,N/A,,Overcast,70,2012-11-09 16:00:00
10:20 AM,37.4,37.4,100,29.91,10.0,East,15.0,23.0,N/A,,Overcast,80,2012-11-09 16:20:00
10:40 AM,37.4,37.4,100,29.91,10.0,ENE,17.3,23.0,N/A,,Overcast,70,2012-11-09 16:40:00
11:00 AM,37.4,37.4,100,29.91,10.0,East,17.3,-,N/A,,Overcast,80,2012-11-09 17:00:00
11:20 AM,39.2,39.2,100,29.90,10.0,East,16.1,-,N/A,,Overcast,80,2012-11-09 17:20:00
11:40 AM,39.2,39.2,100,29.89,10.0,East,17.3,-,N/A,,Mostly Cloudy,90,2012-11-09 17:40:00
12:00 PM,41.0,41.0,100,29.87,10.0,East,18.4,23.0,N/A,,Scattered Clouds,80,2012-11-09 18:00:00
12:20 PM,44.6,42.8,93,29.85,10.0,East,18.4,-,N/A,,Partly Cloudy,90,2012-11-09 18:20:00
12:40 PM,44.6,41.0,87,29.84,10.0,East,16.1,24.2,N/A,,Clear,90,2012-11-09 18:40:00
1:00 PM,44.6,41.0,87,29.83,10.0,East,18.4,24.2,N/A,,Clear,90,2012-11-09 19:00:00
1:20 PM,46.4,41.0,81,29.83,10.0,East,17.3,-,N/A,,Clear,90,2012-11-09 19:20:00
1:40 PM,46.4,41.0,81,29.82,10.0,East,18.4,21.9,N/A,,Clear,80,2012-11-09 19:40:00
2:00 PM,46.4,41.0,81,29.82,10.0,East,17.3,21.9,N/A,,Clear,90,2012-11-09 20:00:00
2:20 PM,46.4,41.0,81,29.81,10.0,East,16.1,-,N/A,,Partly Cloudy,80,2012-11-09 20:20:00
2:40 PM,46.4,41.0,81,29.81,10.0,East,15.0,-,N/A,,Partly Cloudy,80,2012-11-09 20:40:00
3:00 PM,48.2,42.8,82,29.81,10.0,East,17.3,-,N/A,,Clear,80,2012-11-09 21:00:00
3:20 PM,48.2,42.8,82,29.81,10.0,East,18.4,21.9,N/A,,Clear,80,2012-11-09 21:20:00
3:40 PM,46.4,42.8,87,29.80,10.0,East,13.8,20.7,N/A,,Clear,80,2012-11-09 21:40:00
4:00 PM,46.4,44.6,93,29.80,10.0,East,15.0,-,N/A,,Clear,80,2012-11-09 22:00:00
4:20 PM,46.4,44.6,93,29.79,10.0,East,13.8,-,N/A,,Clear,80,2012-11-09 22:20:00
4:40 PM,46.4,44.6,93,29.80,10.0,East,12.7,-,N/A,,Scattered Clouds,90,2012-11-09 22:40:00
5:00 PM,46.4,44.6,93,29.79,10.0,East,16.1,-,N/A,,Overcast,80,2012-11-09 23:00:00
5:20 PM,46.4,46.4,100,29.79,10.0,East,17.3,21.9,N/A,,Overcast,80,2012-11-09 23:20:00
5:40 PM,46.4,46.4,100,29.79,10.0,East,17.3,-,N/A,,Overcast,80,2012-11-09 23:40:00
6:00 PM,46.4,46.4,100,29.79,10.0,East,13.8,-,N/A,,Overcast,80,2012-11-10 00:00:00
6:20 PM,46.4,46.4,100,29.80,10.0,East,11.5,-,N/A,,Overcast,80,2012-11-10 00:20:00
6:40 PM,46.4,46.4,100,29.80,10.0,East,12.7,-,N/A,,Overcast,90,2012-11-10 00:40:00
7:00 PM,46.4,46.4,100,29.79,10.0,East,15.0,-,N/A,,Overcast,90,2012-11-10 01:00:00
7:20 PM,48.2,46.4,93,29.79,10.0,East,17.3,24.2,N/A,,Overcast,100,2012-11-10 01:20:00
7:40 PM,48.2,46.4,93,29.79,10.0,East,17.3,-,N/A,,Overcast,100,2012-11-10 01:40:00
8:00 PM,46.4,46.4,100,29.77,10.0,East,17.3,-,N/A,,Overcast,90,2012-11-10 02:00:00
8:20 PM,46.4,46.4,100,29.77,10.0,East,19.6,23.0,N/A,,Overcast,100,2012-11-10 02:20:00
8:40 PM,46.4,46.4,100,29.78,10.0,East,16.1,-,N/A,,Overcast,100,2012-11-10 02:40:00
9:00 PM,46.4,46.4,100,29.78,10.0,East,15.0,23.0,N/A,,Overcast,100,2012-11-10 03:00:00
9:20 PM,46.4,46.4,100,29.77,10.0,East,15.0,-,N/A,,Overcast,90,2012-11-10 03:20:00
9:40 PM,46.4,46.4,100,29.76,10.0,East,17.3,20.7,N/A,,Overcast,90,2012-11-10 03:40:00
10:00 PM,46.4,46.4,100,29.75,10.0,East,15.0,21.9,N/A,,Overcast,90,2012-11-10 04:00:00
10:20 PM,46.4,46.4,100,29.75,10.0,East,17.3,-,N/A,,Overcast,90,2012-11-10 04:20:00
10:40 PM,46.4,46.4,100,29.74,10.0,East,17.3,23.0,N/A,,Overcast,90,2012-11-10 04:40:00
11:00 PM,46.4,46.4,100,29.72,10.0,East,16.1,-,N/A,,Overcast,90,2012-11-10 05:00:00
11:20 PM,44.6,44.6,100,29.71,10.0,East,17.3,21.9,N/A,,Overcast,100,2012-11-10 05:20:00
11:40 PM,44.6,44.6,100,29.70,10.0,East,16.1,24.2,N/A,,Overcast,100,2012-11-10 05:40:00